Location: L�Ave Maria
(50.7161°N, 1.5911°E)
Time: 13:12:22
(UTC+00:00)

Okean 3 Rocket - Pass Details

Date: 10 July 2020
Orbit: 614 x 645 km, 82.5° (Epoch: 06 August)

Event Time Altitude Azimuth Distance (km) Brightness Sun altitude
Exits shadow 22:52:12 23° 196° (SSW) 1,337 4.8 -15.7°
Maximum altitude 22:54:57 78° 281° (W) 644 3.6 -15.8°
Drops below altitude 10° 22:59:23 10° 8° (N) 2,000 7.3 -16.0°
Sets 23:01:37 0° 10° (N) 2,907 8.3 -16.1°
